EN

Hourly Weather Abay

Today, 24 November, Tuesday

Time Temperature Precipitation Wind Pressure Humidity
00:00 -14°C° 0 mm 2 mps 726 mmHg 86%
01:00 -12°C° 0 mm 1 mps 726 mmHg 86%
02:00 -12°C° 0 mm 1 mps 726 mmHg 86%
03:00 -13°C° 0 mm 1 mps 726 mmHg 86%
04:00 -13°C° 0 mm 1 mps 726 mmHg 85%
05:00 -13°C° 0 mm 1 mps 726 mmHg 90%
06:00 -13°C° 0 mm 1 mps 726 mmHg 89%
07:00 -15°C° 0 mm 2 mps 726 mmHg 88%
08:00 -15°C° 0 mm 2 mps 726 mmHg 87%
09:00 -13°C° 0 mm 1 mps 726 mmHg 86%
10:00 -12°C° 0 mm 1 mps 726 mmHg 84%
11:00 -11°C° 0 mm 1 mps 726 mmHg 83%
12:00 -10°C° 0 mm 1 mps 726 mmHg 83%
13:00 -10°C° 0 mm 1 mps 726 mmHg 84%
14:00 -10°C° 0 mm 1 mps 726 mmHg 84%
15:00 -11°C° 0 mm 1 mps 726 mmHg 84%
16:00 -12°C° 0 mm 1 mps 726 mmHg 84%
17:00 -15°C° 0 mm 2 mps 726 mmHg 85%
18:00 -16°C° 0 mm 2 mps 726 mmHg 84%
19:00 -16°C° 0 mm 2 mps 726 mmHg 84%
20:00 -16°C° 0 mm 2 mps 726 mmHg 84%
21:00 -16°C° 0 mm 2 mps 726 mmHg 84%
22:00 -16°C° 0 mm 2 mps 726 mmHg 84%
23:00 -17°C° 0 mm 2 mps 726 mmHg 84%

Tomorrow, 25 November, Wednesday

Time Temperature Precipitation Wind Pressure Humidity
00:00 -17°C° 0 mm 2 mps 726 mmHg 84%
01:00 -17°C° 0 mm 2 mps 726 mmHg 83%
02:00 -17°C° 0 mm 2 mps 726 mmHg 83%
03:00 -17°C° 0 mm 2 mps 725 mmHg 83%
04:00 -17°C° 0 mm 2 mps 725 mmHg 82%
05:00 -17°C° 0 mm 2 mps 725 mmHg 82%
06:00 -17°C° 0 mm 2 mps 726 mmHg 82%
07:00 -17°C° 0 mm 2 mps 726 mmHg 82%
08:00 -17°C° 0 mm 2 mps 726 mmHg 82%
09:00 -16°C° 0 mm 2 mps 726 mmHg 81%
10:00 -15°C° 0 mm 2 mps 726 mmHg 81%
11:00 -13°C° 0 mm 2 mps 726 mmHg 81%
12:00 -13°C° 0 mm 2 mps 726 mmHg 81%
13:00 -11°C° 0 mm 1 mps 726 mmHg 82%
14:00 -10°C° 0 mm 1 mps 726 mmHg 83%
15:00 -11°C° 0 mm 1 mps 726 mmHg 81%
16:00 -13°C° 0 mm 1 mps 726 mmHg 80%
17:00 -14°C° 0 mm 1 mps 726 mmHg 78%
18:00 -14°C° 0 mm 1 mps 726 mmHg 77%
19:00 -14°C° 0 mm 1 mps 725 mmHg 77%
20:00 -14°C° 0 mm 1 mps 725 mmHg 76%
21:00 -14°C° 0 mm 1 mps 725 mmHg 75%
22:00 -16°C° 0 mm 2 mps 725 mmHg 75%
23:00 -16°C° 0 mm 2 mps 725 mmHg 75%

Day after tomorrow, 26 November, Thursday

Time Temperature Precipitation Wind Pressure Humidity
00:00 -14°C° 0 mm 1 mps 725 mmHg 75%
01:00 -14°C° 0 mm 1 mps 725 mmHg 74%
02:00 -14°C° 0 mm 1 mps 725 mmHg 74%
03:00 -14°C° 0 mm 1 mps 725 mmHg 73%
04:00 -14°C° 0 mm 1 mps 725 mmHg 73%
05:00 -14°C° 0 mm 1 mps 725 mmHg 72%
06:00 -14°C° 0 mm 1 mps 726 mmHg 72%
07:00 -13°C° 0 mm 1 mps 726 mmHg 71%
08:00 -13°C° 0 mm 1 mps 726 mmHg 71%
09:00 -12°C° 0 mm 1 mps 726 mmHg 72%
10:00 -10°C° 0 mm 1 mps 726 mmHg 73%
11:00 -9°C° 0 mm 1 mps 726 mmHg 74%
12:00 -8°C° 0 mm 1 mps 726 mmHg 74%
13:00 -8°C° 0 mm 1 mps 726 mmHg 75%
14:00 -8°C° 0 mm 1 mps 726 mmHg 75%
15:00 -9°C° 0 mm 2 mps 726 mmHg 74%
16:00 -10°C° 0 mm 2 mps 726 mmHg 73%
17:00 -12°C° 0 mm 2 mps 726 mmHg 71%
18:00 -12°C° 0 mm 2 mps 726 mmHg 72%
19:00 -13°C° 0 mm 3 mps 725 mmHg 72%
20:00 -14°C° 0 mm 3 mps 725 mmHg 73%
21:00 -14°C° 0 mm 3 mps 725 mmHg 74%
22:00 -14°C° 0 mm 3 mps 725 mmHg 75%
23:00 -14°C° 0 mm 3 mps 725 mmHg 76%

27 November, Friday

Time Temperature Precipitation Wind Pressure Humidity
00:00 -14°C° 0 mm 4 mps 724 mmHg 76%
01:00 -14°C° 0 mm 4 mps 724 mmHg 77%
02:00 -14°C° 0 mm 4 mps 724 mmHg 77%
03:00 -12°C° 0 mm 4 mps 724 mmHg 78%
04:00 -12°C° 0 mm 4 mps 724 mmHg 80%
05:00 -12°C° 0 mm 3 mps 724 mmHg 81%
06:00 -11°C° 0 mm 4 mps 723 mmHg 81%
07:00 -10°C° 0 mm 4 mps 723 mmHg 81%
08:00 -9°C° 0 mm 4 mps 723 mmHg 81%
09:00 -9°C° 0 mm 4 mps 723 mmHg 80%
10:00 -9°C° 0 mm 4 mps 723 mmHg 78%
11:00 -8°C° 0 mm 4 mps 722 mmHg 77%
12:00 -8°C° 0 mm 4 mps 722 mmHg 78%
13:00 -7°C° 0 mm 4 mps 722 mmHg 80%
14:00 -6°C° 0 mm 3 mps 721 mmHg 81%
15:00 -6°C° 0 mm 3 mps 721 mmHg 80%
16:00 -8°C° 0 mm 4 mps 721 mmHg 80%
17:00 -9°C° 0 mm 4 mps 720 mmHg 79%
18:00 -8°C° 0 mm 4 mps 720 mmHg 80%
19:00 -8°C° 0 mm 4 mps 720 mmHg 81%
20:00 -8°C° 0 mm 5 mps 720 mmHg 81%
21:00 -7°C° 0.4 mm 5 mps 719 mmHg 86%
22:00 -7°C° 0.4 mm 5 mps 719 mmHg 90%
23:00 -8°C° 0.4 mm 6 mps 718 mmHg 95%

28 November, Saturday

Time Temperature Precipitation Wind Pressure Humidity
00:00 -7°C° 0.6 mm 5 mps 718 mmHg 95%
01:00 -7°C° 0.6 mm 4 mps 718 mmHg 96%
02:00 -6°C° 0.6 mm 3 mps 717 mmHg 96%
03:00 -6°C° 0.5 mm 3 mps 717 mmHg 96%
04:00 -6°C° 0.5 mm 3 mps 716 mmHg 96%
05:00 -6°C° 0.5 mm 3 mps 716 mmHg 96%
06:00 -6°C° 0.8 mm 3 mps 716 mmHg 96%
07:00 -7°C° 0.8 mm 4 mps 716 mmHg 96%
08:00 -7°C° 0.8 mm 4 mps 716 mmHg 96%
09:00 -8°C° 0.5 mm 6 mps 717 mmHg 96%
10:00 -8°C° 0.5 mm 7 mps 718 mmHg 95%
11:00 -8°C° 0.5 mm 8 mps 718 mmHg 95%
12:00 -10°C° 0.3 mm 9 mps 719 mmHg 94%
13:00 -11°C° 0.3 mm 9 mps 720 mmHg 94%
14:00 -12°C° 0.3 mm 10 mps 721 mmHg 93%
15:00 -12°C° 0.3 mm 9 mps 722 mmHg 93%
16:00 -12°C° 0.3 mm 9 mps 723 mmHg 93%
17:00 -14°C° 0.3 mm 9 mps 724 mmHg 93%
18:00 -15°C° 0.1 mm 9 mps 725 mmHg 93%
19:00 -15°C° 0.1 mm 8 mps 725 mmHg 93%
20:00 -16°C° 0.1 mm 8 mps 726 mmHg 93%
21:00 -17°C° 0.1 mm 7 mps 726 mmHg 93%
22:00 -17°C° 0.1 mm 7 mps 727 mmHg 93%
23:00 -16°C° 0.1 mm 6 mps 727 mmHg 93%

29 November, Sunday

Time Temperature Precipitation Wind Pressure Humidity
00:00 -17°C° 0.1 mm 6 mps 728 mmHg 93%
01:00 -17°C° 0.1 mm 6 mps 728 mmHg 94%
02:00 -17°C° 0.1 mm 6 mps 729 mmHg 94%
03:00 -18°C° 0 mm 5 mps 729 mmHg 94%
04:00 -18°C° 0 mm 5 mps 729 mmHg 94%
05:00 -18°C° 0 mm 5 mps 730 mmHg 95%
06:00 -19°C° 0 mm 5 mps 730 mmHg 95%
07:00 -18°C° 0 mm 4 mps 730 mmHg 95%
08:00 -18°C° 0 mm 4 mps 730 mmHg 96%
09:00 -17°C° 0 mm 4 mps 730 mmHg 95%
10:00 -17°C° 0 mm 4 mps 730 mmHg 94%
11:00 -17°C° 0 mm 5 mps 731 mmHg 94%
12:00 -17°C° 0 mm 5 mps 730 mmHg 94%
13:00 -16°C° 0 mm 4 mps 730 mmHg 93%
14:00 -15°C° 0 mm 4 mps 730 mmHg 93%
15:00 -15°C° 0.1 mm 5 mps 730 mmHg 93%
16:00 -15°C° 0.1 mm 5 mps 730 mmHg 94%
17:00 -15°C° 0.1 mm 5 mps 730 mmHg 94%
18:00 -14°C° 0.1 mm 5 mps 730 mmHg 94%
19:00 -14°C° 0.1 mm 5 mps 729 mmHg 94%
20:00 -14°C° 0.1 mm 5 mps 729 mmHg 94%
21:00 -14°C° 0.1 mm 5 mps 729 mmHg 94%
22:00 -15°C° 0.1 mm 6 mps 728 mmHg 94%
23:00 -15°C° 0.1 mm 6 mps 728 mmHg 93%
Show more